Total_Precipitation_Accumulation
0.11 0.11 0.11 0.12 0.12 0.13 0.14 0.16 0.17 0.16 0.16 0.16 0.17 0.18 0.20 0.22 0.19 0.14 0.10 0.08 0.03 0.02 0.06 0.15 0.29 0.43 0.48 0.48 0.44 0.30 0.18 0.07 0.02 0.01 0.00 0.00 0.00 0.00 0.00 0.00 0.01 0.02 0.03
0.03 0.03 0.03 0.02 0.02 0.02 0.02 0.03 0.04 0.05 0.06 0.08 0.09 0.11 0.13 0.16 0.17 0.16 0.15 0.14 0.07 0.03 0.04 0.09 0.17 0.28 0.42 0.48 0.47 0.41 0.28 0.15 0.04 0.01 0.00 0.00 0.00 0.00 0.00 0.00 0.00 0.01 0.01
0.01 0.01 0.01 0.01 0.00 0.00 0.00 0.00 0.00 0.01 0.01 0.02 0.03 0.05 0.07 0.08 0.11 0.14 0.15 0.15 0.13 0.07 0.03 0.07 0.14 0.23 0.36 0.46 0.48 0.49 0.41 0.24 0.13 0.05 0.02 0.00 0.00 0.00 0.00 0.00 0.00 0.00 0.01
0.00 0.00 0.00 0.00 0.00 0.00 0.01 0.01 0.01 0.00 0.01 0.01 0.02 0.03 0.05 0.06 0.06 0.08 0.12 0.12 0.12 0.09 0.04 0.04 0.13 0.27 0.38 0.47 0.52 0.56 0.56 0.41 0.24 0.13 0.05 0.02 0.01 0.00 0.00 0.00 0.00 0.01 0.01
0.00 0.00 0.00 0.00 0.00 0.01 0.01 0.02 0.02 0.01 0.01 0.01 0.02 0.02 0.02 0.04 0.05 0.07 0.10 0.13 0.13 0.10 0.07 0.04 0.07 0.19 0.33 0.49 0.66 0.74 0.83 0.77 0.53 0.31 0.13 0.05 0.02 0.01 0.00 0.00 0.00 0.01 0.00
0.00 0.00 0.00 0.00 0.00 0.00 0.00 0.01 0.01 0.01 0.02 0.01 0.02 0.01 0.00 0.01 0.02 0.05 0.07 0.11 0.14 0.13 0.10 0.08 0.07 0.07 0.13 0.24 0.41 0.61 0.70 0.79 0.74 0.54 0.32 0.14 0.05 0.02 0.01 0.00 0.00 0.01 0.01
0.00 0.00 0.00 0.00 0.00 0.00 0.01 0.01 0.02 0.02 0.01 0.01 0.01 0.00 0.00 0.00 0.01 0.02 0.06 0.11 0.15 0.19 0.22 0.21 0.20 0.15 0.11 0.13 0.17 0.25 0.39 0.52 0.61 0.65 0.53 0.32 0.15 0.06 0.02 0.01 0.00 0.00 0.01
0.00 0.00 0.00 0.00 0.00 0.00 0.00 0.01 0.01 0.03 0.02 0.02 0.02 0.02 0.00 0.00 0.00 0.01 0.04 0.08 0.15 0.24 0.34 0.35 0.34 0.28 0.21 0.16 0.12 0.13 0.19 0.31 0.40 0.51 0.56 0.45 0.31 0.17 0.07 0.02 0.01 0.00 0.00
0.00 0.00 0.00 0.00 0.00 0.01 0.01 0.01 0.01 0.01 0.02 0.01 0.03 0.06 0.04 0.01 0.00 0.00 0.01 0.04 0.07 0.11 0.17 0.24 0.28 0.27 0.25 0.23 0.19 0.17 0.16 0.22 0.32 0.36 0.42 0.45 0.39 0.30 0.20 0.10 0.03 0.01 0.00
0.00 0.00 0.00 0.00 0.00 0.01 0.01 0.01 0.02 0.02 0.03 0.03 0.03 0.04 0.05 0.04 0.03 0.01 0.01 0.02 0.02 0.03 0.04 0.07 0.12 0.16 0.20 0.23 0.23 0.21 0.20 0.19 0.28 0.33 0.32 0.32 0.33 0.33 0.28 0.20 0.10 0.04 0.01
0.00 0.00 0.00 0.00 0.00 0.01 0.01 0.02 0.03 0.03 0.05 0.05 0.05 0.05 0.05 0.04 0.04 0.04 0.02 0.02 0.03 0.03 0.03 0.03 0.05 0.07 0.09 0.13 0.17 0.19 0.21 0.20 0.26 0.34 0.36 0.33 0.28 0.30 0.33 0.24 0.14 0.08 0.04
0.00 0.00 0.00 0.00 0.01 0.01 0.02 0.03 0.04 0.05 0.06 0.07 0.07 0.07 0.06 0.05 0.05 0.06 0.05 0.02 0.02 0.02 0.04 0.04 0.03 0.04 0.05 0.08 0.10 0.13 0.14 0.16 0.20 0.28 0.30 0.34 0.38 0.38 0.39 0.28 0.14 0.07 0.04
0.01 0.00 0.01 0.01 0.01 0.02 0.03 0.05 0.06 0.06 0.06 0.08 0.08 0.07 0.07 0.06 0.05 0.06 0.07 0.05 0.03 0.02 0.02 0.03 0.04 0.05 0.05 0.05 0.07 0.08 0.08 0.10 0.14 0.22 0.24 0.23 0.26 0.38 0.49 0.40 0.21 0.09 0.05
0.01 0.01 0.01 0.01 0.01 0.03 0.05 0.07 0.08 0.07 0.08 0.08 0.08 0.08 0.08 0.07 0.06 0.06 0.06 0.07 0.06 0.04 0.02 0.02 0.03 0.04 0.05 0.06 0.07 0.06 0.05 0.05 0.08 0.13 0.17 0.20 0.21 0.22 0.29 0.39 0.39 0.26 0.15
0.01 0.01 0.01 0.02 0.03 0.05 0.06 0.08 0.08 0.09 0.10 0.10 0.10 0.10 0.11 0.11 0.10 0.08 0.07 0.07 0.08 0.07 0.03 0.02 0.02 0.03 0.04 0.06 0.09 0.08 0.06 0.05 0.05 0.07 0.11 0.16 0.21 0.23 0.23 0.24 0.27 0.32 0.29
0.01 0.01 0.02 0.04 0.07 0.10 0.12 0.12 0.11 0.10 0.11 0.12 0.14 0.15 0.16 0.16 0.16 0.14 0.11 0.09 0.08 0.07 0.05 0.03 0.02 0.02 0.04 0.06 0.09 0.09 0.08 0.06 0.05 0.05 0.07 0.12 0.18 0.25 0.29 0.30 0.27 0.25 0.25
0.02 0.03 0.05 0.07 0.09 0.14 0.17 0.19 0.19 0.18 0.16 0.15 0.17 0.20 0.21 0.20 0.20 0.18 0.16 0.13 0.10 0.09 0.07 0.03 0.02 0.02 0.05 0.08 0.09 0.09 0.09 0.06 0.04 0.04 0.06 0.09 0.15 0.22 0.30 0.35 0.35 0.32 0.28
0.05 0.07 0.10 0.12 0.14 0.15 0.18 0.25 0.30 0.32 0.33 0.32 0.31 0.30 0.30 0.31 0.31 0.27 0.23 0.18 0.13 0.10 0.09 0.07 0.03 0.02 0.04 0.09 0.13 0.14 0.11 0.07 0.04 0.04 0.05 0.07 0.11 0.17 0.25 0.32 0.35 0.35 0.34
0.09 0.13 0.19 0.24 0.25 0.24 0.24 0.26 0.35 0.48 0.55 0.59 0.59 0.56 0.51 0.46 0.44 0.41 0.36 0.29 0.20 0.14 0.11 0.10 0.07 0.04 0.05 0.10 0.16 0.18 0.15 0.10 0.06 0.06 0.06 0.06 0.07 0.11 0.17 0.22 0.28 0.31 0.31
0.19 0.25 0.32 0.40 0.42 0.42 0.45 0.46 0.45 0.46 0.55 0.65 0.71 0.72 0.72 0.68 0.61 0.55 0.50 0.42 0.32 0.23 0.18 0.16 0.14 0.10 0.08 0.12 0.22 0.23 0.18 0.13 0.08 0.06 0.06 0.05 0.06 0.07 0.09 0.12 0.15 0.20 0.25
0.25 0.33 0.37 0.38 0.35 0.38 0.54 0.65 0.53 0.37 0.36 0.41 0.48 0.53 0.59 0.68 0.73 0.69 0.63 0.55 0.44 0.36 0.28 0.23 0.19 0.17 0.13 0.15 0.25 0.28 0.26 0.20 0.17 0.13 0.08 0.04 0.03 0.03 0.06 0.09 0.13 0.17 0.20
0.18 0.28 0.34 0.31 0.25 0.27 0.43 0.52 0.36 0.21 0.20 0.23 0.29 0.32 0.35 0.45 0.52 0.59 0.64 0.61 0.59 0.52 0.44 0.36 0.29 0.24 0.19 0.18 0.25 0.35 0.31 0.25 0.23 0.21 0.18 0.14 0.08 0.06 0.06 0.06 0.10 0.12 0.14
0.11 0.16 0.18 0.15 0.15 0.20 0.33 0.40 0.23 0.07 0.06 0.09 0.13 0.16 0.17 0.22 0.27 0.32 0.39 0.44 0.53 0.61 0.62 0.56 0.52 0.42 0.31 0.26 0.27 0.33 0.35 0.31 0.25 0.22 0.21 0.25 0.23 0.16 0.11 0.10 0.12 0.10 0.09
0.09 0.11 0.09 0.05 0.05 0.08 0.22 0.35 0.19 0.02 0.02 0.05 0.09 0.09 0.08 0.11 0.15 0.17 0.21 0.27 0.35 0.49 0.62 0.66 0.69 0.62 0.47 0.35 0.33 0.38 0.43 0.38 0.33 0.31 0.27 0.29 0.28 0.25 0.20 0.17 0.15 0.10 0.06
0.07 0.09 0.07 0.03 0.01 0.03 0.15 0.35 0.24 0.02 0.02 0.05 0.10 0.11 0.07 0.05 0.09 0.07 0.10 0.16 0.21 0.34 0.44 0.52 0.56 0.55 0.51 0.46 0.44 0.45 0.47 0.46 0.47 0.46 0.40 0.39 0.36 0.27 0.23 0.21 0.19 0.12 0.06
0.02 0.04 0.04 0.02 0.00 0.01 0.08 0.30 0.35 0.06 0.03 0.04 0.06 0.08 0.12 0.08 0.06 0.03 0.05 0.08 0.11 0.18 0.21 0.25 0.29 0.34 0.37 0.39 0.45 0.52 0.56 0.50 0.50 0.52 0.46 0.39 0.42 0.35 0.29 0.22 0.14 0.09 0.06